User: anonymous   Login
Location: Domont
(49.0278°N, 2.3264°E)
Time: 23:51:53
(UTC+00:00)
Language:

Max Valier Satellite - Orbit

View from above orbital plane
View from above orbital plane
View from above satellite
View from above satellite

Ground track
Ground track

The orbit data is extracted from the following two-line orbital elements,

1 42778U 17036P   22179.52847842  .00005101  00000-0  19399-3 0  9997
2 42778  97.2040 220.2494 0008720 288.9214  71.1080 15.27168823278597
Epoch (UTC): 28 June 2022 12:41:00
Eccentricity: 0.0008720
inclination: 97.2040°
perigee height: 478 km
apogee height: 490 km
right ascension of ascending node: 220.2494°
argument of perigee: 288.9214°
revolutions per day: 15.27168823
mean anomaly at epoch: 71.1080°
orbit number at epoch: 27859

The dashed part of the orbit path shows where the satellite is in the earth's shadow,  

DLR